Location: Namasale
(1.5000°N, 32.6167°E)
Time: 10:08:44
(UTC+00:00)

Vanguard 1 Rocket - Pass Details

Date: 26 April 2021
Orbit: 652 x 4225 km, 34.3° (Epoch: 15 May)

Event Time Altitude Azimuth Distance (km) Brightness Sun altitude
Rises 05:02:46 0° 231° (SW) 8,463 11.8 18.7°
Reaches altitude 10° 05:08:56 10° 230° (SW) 7,314 11.5 20.2°
Maximum altitude 05:32:58 84° 143° (SE) 2,931 10.4 26.0°
Drops below altitude 10° 05:45:43 10° 56° (NE) 4,258 12.2 29.1°
Sets 05:48:16 0° 56° (NE) 4,917 12.2 29.7°
